Time,TemperatureF,DewpointF,PressureIn,WindDirection,WindDirectionDegrees,WindSpeedMPH,WindSpeedGustMPH,Humidity,HourlyPrecipIn,Conditions,Clouds,dailyrainin,SoftwareType,DateUTC
2013-03-02 00:00:00,15.0,14.0,-100.00,NW,314,25.0,39.0,96,-99.99,,,-99.99,,2013-03-02 07:00:00,
2013-03-02 00:42:00,15.0,14.0,-100.00,NW,314,25.0,39.0,96,-99.99,,,-99.99,,2013-03-02 07:42:00,
2013-03-02 00:52:00,15.0,14.0,-100.00,NW,314,25.0,39.0,96,-99.99,,,-99.99,,2013-03-02 07:52:00,
2013-03-02 02:00:00,14.0,14.0,-100.00,NW,310,20.0,34.0,96,-99.99,,,-99.99,,2013-03-02 09:00:00,
2013-03-02 02:42:00,14.0,14.0,-100.00,NW,310,20.0,34.0,96,-99.99,,,-99.99,,2013-03-02 09:42:00,
2013-03-02 02:52:00,14.0,14.0,-100.00,NW,310,20.0,34.0,96,-99.99,,,-99.99,,2013-03-02 09:52:00,
2013-03-02 03:00:00,14.0,14.0,-100.00,NW,310,15.0,30.0,96,-99.99,,,-99.99,,2013-03-02 10:00:00,
2013-03-02 03:43:00,14.0,14.0,-100.00,NW,310,15.0,30.0,96,-99.99,,,-99.99,,2013-03-02 10:43:00,
2013-03-02 03:52:00,14.0,14.0,-100.00,NW,310,15.0,30.0,96,-99.99,,,-99.99,,2013-03-02 10:52:00,
2013-03-02 04:00:00,14.0,14.0,-100.00,NW,310,16.0,28.0,96,-99.99,,,-99.99,,2013-03-02 11:00:00,
2013-03-02 04:42:00,14.0,14.0,-100.00,NW,310,16.0,28.0,96,-99.99,,,-99.99,,2013-03-02 11:42:00,
2013-03-02 04:52:00,14.0,14.0,-100.00,NW,310,16.0,28.0,96,-99.99,,,-99.99,,2013-03-02 11:52:00,
2013-03-02 05:00:00,14.0,13.0,-100.00,NW,313,21.0,28.0,96,-99.99,,,-99.99,,2013-03-02 12:00:00,
2013-03-02 05:43:00,14.0,13.0,-100.00,NW,313,21.0,28.0,96,-99.99,,,-99.99,,2013-03-02 12:43:00,
2013-03-02 05:53:00,14.0,13.0,-100.00,NW,313,21.0,28.0,96,-99.99,,,-99.99,,2013-03-02 12:53:00,
2013-03-02 06:00:00,14.0,13.0,-100.00,NW,311,17.0,27.0,96,-99.99,,,-99.99,,2013-03-02 13:00:00,
2013-03-02 06:42:00,14.0,13.0,-100.00,NW,311,17.0,27.0,96,-99.99,,,-99.99,,2013-03-02 13:42:00,
2013-03-02 06:52:00,14.0,13.0,-100.00,NW,311,17.0,27.0,96,-99.99,,,-99.99,,2013-03-02 13:52:00,
2013-03-02 13:00:00,21.0,18.0,-100.00,WNW,295,19.0,31.0,87,-99.99,,,-99.99,,2013-03-02 20:00:00,
2013-03-02 13:42:00,21.0,18.0,-100.00,WNW,295,19.0,31.0,87,-99.99,,,-99.99,,2013-03-02 20:42:00,
2013-03-02 13:53:00,21.0,18.0,-100.00,WNW,295,19.0,31.0,87,-99.99,,,-99.99,,2013-03-02 20:53:00,
2013-03-02 15:00:00,24.0,16.0,-100.00,WNW,301,13.0,25.0,72,-99.99,,,-99.99,,2013-03-02 22:00:00,
2013-03-02 15:42:00,24.0,16.0,-100.00,WNW,301,13.0,25.0,72,-99.99,,,-99.99,,2013-03-02 22:42:00,
2013-03-02 15:52:00,24.0,16.0,-100.00,WNW,301,13.0,25.0,72,-99.99,,,-99.99,,2013-03-02 22:52:00,
2013-03-02 19:00:00,25.0,8.0,-100.00,WNW,285,20.0,31.0,48,-99.99,,,-99.99,,2013-03-03 02:00:00,
2013-03-02 19:42:00,25.0,8.0,-100.00,WNW,285,20.0,31.0,48,-99.99,,,-99.99,,2013-03-03 02:42:00,
2013-03-02 19:52:00,25.0,8.0,-100.00,WNW,285,20.0,31.0,48,-99.99,,,-99.99,,2013-03-03 02:52:00,
2013-03-02 20:00:00,25.0,9.0,-100.00,West,276,19.0,31.0,50,-99.99,,,-99.99,,2013-03-03 03:00:00,
2013-03-02 20:42:00,25.0,9.0,-100.00,West,276,19.0,31.0,50,-99.99,,,-99.99,,2013-03-03 03:42:00,
2013-03-02 20:52:00,25.0,9.0,-100.00,West,276,19.0,31.0,50,-99.99,,,-99.99,,2013-03-03 03:52:00,
2013-03-02 21:00:00,25.0,8.0,-100.00,West,259,16.0,26.0,47,-99.99,,,-99.99,,2013-03-03 04:00:00,
2013-03-02 21:42:00,25.0,8.0,-100.00,West,259,16.0,26.0,47,-99.99,,,-99.99,,2013-03-03 04:42:00,
2013-03-02 21:52:00,25.0,8.0,-100.00,West,259,16.0,26.0,47,-99.99,,,-99.99,,2013-03-03 04:52:00,
2013-03-02 22:00:00,25.0,6.0,-100.00,WSW,255,19.0,30.0,44,-99.99,,,-99.99,,2013-03-03 05:00:00,
2013-03-02 22:42:00,25.0,6.0,-100.00,WSW,255,19.0,30.0,44,-99.99,,,-99.99,,2013-03-03 05:42:00,
2013-03-02 22:52:00,25.0,6.0,-100.00,WSW,255,19.0,30.0,44,-99.99,,,-99.99,,2013-03-03 05:52:00,
2013-03-02 23:00:00,24.0,8.0,-100.00,WSW,245,21.0,30.0,50,-99.99,,,-99.99,,2013-03-03 06:00:00,
2013-03-02 23:42:00,24.0,8.0,-100.00,WSW,245,21.0,30.0,50,-99.99,,,-99.99,,2013-03-03 06:42:00,
2013-03-02 23:52:00,24.0,8.0,-100.00,WSW,245,21.0,30.0,50,-99.99,,,-99.99,,2013-03-03 06:52:00,